Anzahl Datensätze: 287
min. Temperatur: 10.6 °C
max. Temperatur: 21.3 °C
max. Windgeschwindigkeit: 43.9 km/h
Niederschlagsumme: 1.6 mm
| Datum |
Zeit |
Temp °C |
Feuchte % |
Taupunkt °C |
Luftdruck hPa |
Wind km/h |
Windrichtung |
Strahlung w/m² |
Niederschlag mm |
|---|---|---|---|---|---|---|---|---|---|
| 25.05.2025 | 00:00 | 10.6 | 93 | 9.5 | 1017.2 | 4.3 | SSW | 0 | 0.0 |
| 25.05.2025 | 00:05 | 10.7 | 93 | 9.6 | 1017.2 | 8.3 | SSW | 0 | 0.0 |
| 25.05.2025 | 00:10 | 10.7 | 93 | 9.6 | 1017.1 | 8.3 | SW | 0 | 0.0 |
| 25.05.2025 | 00:15 | 10.7 | 93 | 9.6 | 1017.1 | 10.4 | SSW | 0 | 0.0 |
| 25.05.2025 | 00:20 | 10.7 | 93 | 9.6 | 1017.1 | 10.4 | SW | 0 | 0.0 |
| 25.05.2025 | 00:25 | 10.8 | 92 | 9.6 | 1017.1 | 6.1 | SSW | 0 | 0.0 |
| 25.05.2025 | 00:30 | 10.8 | 93 | 9.7 | 1017.1 | 6.1 | S | 0 | 0.0 |
| 25.05.2025 | 00:35 | 10.8 | 92 | 9.6 | 1017.0 | 4.3 | SW | 0 | 0.0 |
| 25.05.2025 | 00:40 | 10.8 | 92 | 9.6 | 1016.9 | 6.1 | SSW | 0 | 0.0 |
| 25.05.2025 | 00:45 | 10.8 | 92 | 9.6 | 1016.9 | 6.1 | SW | 0 | 0.0 |
| 25.05.2025 | 00:51 | 10.9 | 92 | 9.7 | 1016.9 | 8.3 | SW | 0 | 0.0 |
| 25.05.2025 | 00:56 | 10.8 | 92 | 9.6 | 1016.8 | 8.3 | SSW | 0 | 0.0 |
| 25.05.2025 | 01:01 | 10.8 | 92 | 9.6 | 1016.8 | 8.3 | SW | 0 | 0.0 |
| 25.05.2025 | 01:06 | 10.8 | 92 | 9.6 | 1016.7 | 8.3 | SSW | 0 | 0.0 |
| 25.05.2025 | 01:11 | 10.8 | 93 | 9.7 | 1016.7 | 8.3 | SSW | 0 | 0.0 |
| 25.05.2025 | 01:16 | 10.8 | 92 | 9.6 | 1016.7 | 6.1 | SW | 0 | 0.0 |
| 25.05.2025 | 01:21 | 10.8 | 93 | 9.7 | 1016.7 | 4.3 | SSW | 0 | 0.0 |
| 25.05.2025 | 01:26 | 10.8 | 93 | 9.7 | 1016.6 | 1.8 | SSW | 0 | 0.0 |
| 25.05.2025 | 01:31 | 10.8 | 93 | 9.7 | 1016.5 | 0.0 | SSW | 0 | 0.0 |
| 25.05.2025 | 01:36 | 10.8 | 93 | 9.7 | 1016.6 | 0.0 | SSW | 0 | 0.0 |
| 25.05.2025 | 01:41 | 10.8 | 93 | 9.7 | 1016.5 | 4.3 | SSW | 0 | 0.0 |
| 25.05.2025 | 01:46 | 10.8 | 93 | 9.7 | 1016.4 | 4.3 | SSW | 0 | 0.0 |
| 25.05.2025 | 01:51 | 10.8 | 93 | 9.7 | 1016.4 | 1.8 | SW | 0 | 0.0 |
| 25.05.2025 | 01:56 | 10.9 | 93 | 9.8 | 1016.3 | 0.0 | SW | 0 | 0.0 |
| 25.05.2025 | 02:01 | 10.8 | 93 | 9.7 | 1016.2 | 0.0 | SW | 0 | 0.0 |
| 25.05.2025 | 02:06 | 10.8 | 94 | 9.9 | 1016.2 | 1.8 | SW | 0 | 0.0 |
| 25.05.2025 | 02:11 | 10.8 | 94 | 9.9 | 1016.1 | 6.1 | SSW | 0 | 0.0 |
| 25.05.2025 | 02:16 | 10.8 | 94 | 9.9 | 1016.0 | 1.8 | SSW | 0 | 0.0 |
| 25.05.2025 | 02:21 | 10.8 | 94 | 9.9 | 1016.0 | 1.8 | SSW | 0 | 0.0 |
| 25.05.2025 | 02:26 | 10.8 | 94 | 9.9 | 1016.0 | 0.0 | SSW | 0 | 0.0 |
| 25.05.2025 | 02:31 | 10.9 | 94 | 10.0 | 1015.9 | 0.0 | SSW | 0 | 0.0 |
| 25.05.2025 | 02:36 | 10.9 | 93 | 9.8 | 1015.9 | 0.0 | SSW | 0 | 0.0 |
| 25.05.2025 | 02:41 | 10.9 | 94 | 10.0 | 1015.8 | 0.0 | SSW | 0 | 0.0 |
| 25.05.2025 | 02:46 | 10.9 | 93 | 9.8 | 1015.7 | 0.0 | SSW | 0 | 0.0 |
| 25.05.2025 | 02:51 | 10.9 | 93 | 9.8 | 1015.7 | 1.8 | S | 0 | 0.0 |
| 25.05.2025 | 02:56 | 10.9 | 93 | 9.8 | 1015.7 | 0.0 | WSW | 0 | 0.0 |
| 25.05.2025 | 03:01 | 10.9 | 93 | 9.8 | 1015.7 | 1.8 | SW | 0 | 0.0 |
| 25.05.2025 | 03:06 | 11.0 | 93 | 9.9 | 1015.7 | 4.3 | SW | 0 | 0.0 |
| 25.05.2025 | 03:11 | 11.0 | 93 | 9.9 | 1015.5 | 6.1 | SW | 0 | 0.0 |
| 25.05.2025 | 03:16 | 11.0 | 93 | 9.9 | 1015.5 | 6.1 | W | 0 | 0.0 |
| 25.05.2025 | 03:21 | 11.1 | 93 | 10.0 | 1015.5 | 4.3 | WSW | 0 | 0.0 |
| 25.05.2025 | 03:26 | 11.1 | 93 | 10.0 | 1015.5 | 1.8 | SW | 0 | 0.0 |
| 25.05.2025 | 03:31 | 11.1 | 92 | 9.8 | 1015.5 | 0.0 | W | 0 | 0.0 |
| 25.05.2025 | 03:36 | 11.1 | 92 | 9.8 | 1015.4 | 1.8 | SW | 0 | 0.0 |
| 25.05.2025 | 03:41 | 11.2 | 92 | 9.9 | 1015.3 | 6.1 | S | 0 | 0.0 |
| 25.05.2025 | 03:47 | 11.2 | 92 | 9.9 | 1015.4 | 6.1 | SSW | 0 | 0.0 |
| 25.05.2025 | 03:52 | 11.2 | 92 | 9.9 | 1015.4 | 8.3 | WSW | 0 | 0.0 |
| 25.05.2025 | 03:57 | 11.3 | 91 | 9.9 | 1015.3 | 10.4 | WSW | 0 | 0.0 |
| 25.05.2025 | 04:02 | 11.3 | 91 | 9.9 | 1015.3 | 8.3 | WSW | 0 | 0.0 |
| 25.05.2025 | 04:07 | 11.3 | 91 | 9.9 | 1015.3 | 10.4 | SW | 0 | 0.0 |
| 25.05.2025 | 04:12 | 11.3 | 91 | 9.9 | 1015.2 | 10.4 | SW | 0 | 0.0 |
| 25.05.2025 | 04:17 | 11.4 | 90 | 9.8 | 1015.2 | 6.1 | WSW | 0 | 0.0 |
| 25.05.2025 | 04:22 | 11.4 | 90 | 9.8 | 1015.2 | 1.8 | SW | 0 | 0.0 |
| 25.05.2025 | 04:27 | 11.4 | 90 | 9.8 | 1015.1 | 12.6 | SW | 0 | 0.0 |
| 25.05.2025 | 04:32 | 11.5 | 90 | 9.9 | 1015.1 | 6.1 | WSW | 0 | 0.0 |
| 25.05.2025 | 04:37 | 11.4 | 90 | 9.8 | 1015.2 | 6.1 | WSW | 0 | 0.0 |
| 25.05.2025 | 04:42 | 11.4 | 90 | 9.8 | 1015.2 | 8.3 | WSW | 0 | 0.0 |
| 25.05.2025 | 04:47 | 11.4 | 90 | 9.8 | 1015.3 | 0.0 | SW | 0 | 0.0 |
| 25.05.2025 | 04:52 | 11.4 | 90 | 9.8 | 1015.3 | 8.3 | SW | 0 | 0.0 |
| 25.05.2025 | 04:57 | 11.4 | 90 | 9.8 | 1015.3 | 4.3 | W | 0 | 0.0 |
| 25.05.2025 | 05:02 | 11.4 | 90 | 9.8 | 1015.2 | 1.8 | SSW | 0 | 0.0 |
| 25.05.2025 | 05:07 | 11.4 | 90 | 9.8 | 1015.3 | 4.3 | W | 0 | 0.0 |
| 25.05.2025 | 05:12 | 11.4 | 90 | 9.8 | 1015.2 | 4.3 | W | 0 | 0.0 |
| 25.05.2025 | 05:17 | 11.4 | 90 | 9.8 | 1015.3 | 1.8 | W | 0 | 0.0 |
| 25.05.2025 | 05:22 | 11.3 | 91 | 9.9 | 1015.3 | 6.1 | W | 0 | 0.2 |
| 25.05.2025 | 05:27 | 11.3 | 91 | 9.9 | 1015.2 | 8.3 | WSW | 0 | 0.4 |
| 25.05.2025 | 05:32 | 11.2 | 92 | 9.9 | 1015.2 | 18.7 | SW | 0 | 0.6 |
| 25.05.2025 | 05:37 | 11.2 | 92 | 9.9 | 1015.1 | 10.4 | SSW | 0 | 0.8 |
| 25.05.2025 | 05:42 | 11.1 | 92 | 9.8 | 1015.0 | 8.3 | S | 0 | 0.8 |
| 25.05.2025 | 05:47 | 11.1 | 93 | 10.0 | 1015.0 | 6.1 | SW | 0 | 0.8 |
| 25.05.2025 | 05:52 | 11.1 | 92 | 9.8 | 1015.1 | 6.1 | SW | 0 | 0.8 |
| 25.05.2025 | 05:57 | 11.1 | 92 | 9.8 | 1015.0 | 14.4 | SSW | 5 | 1.0 |
| 25.05.2025 | 06:02 | 11.2 | 93 | 10.1 | 1015.0 | 10.4 | SSW | 9 | 1.0 |
| 25.05.2025 | 06:07 | 11.2 | 93 | 10.1 | 1014.9 | 14.4 | WSW | 11 | 1.0 |
| 25.05.2025 | 06:12 | 11.2 | 93 | 10.1 | 1014.8 | 12.6 | SSW | 14 | 1.0 |
| 25.05.2025 | 06:17 | 11.3 | 92 | 10.0 | 1014.7 | 6.1 | SW | 18 | 1.0 |
| 25.05.2025 | 06:22 | 11.4 | 92 | 10.1 | 1014.7 | 12.6 | SSW | 21 | 1.0 |
| 25.05.2025 | 06:27 | 11.4 | 92 | 10.1 | 1014.7 | 14.4 | SSW | 21 | 1.0 |
| 25.05.2025 | 06:32 | 11.5 | 92 | 10.2 | 1014.6 | 10.4 | SSW | 26 | 1.0 |
| 25.05.2025 | 06:38 | 11.6 | 91 | 10.2 | 1014.6 | 10.4 | SSW | 25 | 1.0 |
| 25.05.2025 | 06:43 | 11.6 | 91 | 10.2 | 1014.6 | 16.9 | WSW | 19 | 1.0 |
| 25.05.2025 | 06:48 | 11.6 | 91 | 10.2 | 1014.7 | 10.4 | SW | 21 | 1.0 |
| 25.05.2025 | 06:53 | 11.7 | 91 | 10.3 | 1014.7 | 14.4 | SSW | 30 | 1.0 |
| 25.05.2025 | 06:58 | 11.7 | 91 | 10.3 | 1014.8 | 16.9 | WSW | 33 | 1.0 |
| 25.05.2025 | 07:03 | 11.7 | 91 | 10.3 | 1014.7 | 12.6 | SSW | 39 | 1.0 |
| 25.05.2025 | 07:08 | 11.8 | 91 | 10.4 | 1014.8 | 18.7 | S | 32 | 1.0 |
| 25.05.2025 | 07:13 | 11.8 | 91 | 10.4 | 1014.8 | 16.9 | SW | 30 | 1.0 |
| 25.05.2025 | 07:18 | 11.8 | 91 | 10.4 | 1014.8 | 12.6 | SW | 49 | 1.0 |
| 25.05.2025 | 07:23 | 11.9 | 90 | 10.3 | 1014.8 | 12.6 | SW | 42 | 1.0 |
| 25.05.2025 | 07:28 | 12.0 | 90 | 10.4 | 1014.8 | 16.9 | WSW | 47 | 1.0 |
| 25.05.2025 | 07:33 | 12.1 | 90 | 10.5 | 1014.9 | 21.2 | SW | 47 | 1.0 |
| 25.05.2025 | 07:38 | 12.1 | 90 | 10.5 | 1014.9 | 6.1 | W | 42 | 1.0 |
| 25.05.2025 | 07:43 | 12.2 | 90 | 10.6 | 1014.9 | 16.9 | SSW | 53 | 1.0 |
| 25.05.2025 | 07:48 | 12.3 | 90 | 10.7 | 1014.9 | 12.6 | SSW | 72 | 1.0 |
| 25.05.2025 | 07:53 | 12.3 | 90 | 10.7 | 1014.9 | 8.3 | SW | 98 | 1.0 |
| 25.05.2025 | 07:58 | 12.3 | 90 | 10.7 | 1014.8 | 18.7 | SW | 102 | 1.0 |
| 25.05.2025 | 08:03 | 12.4 | 90 | 10.8 | 1014.9 | 8.3 | SW | 114 | 1.2 |
| 25.05.2025 | 08:08 | 12.4 | 90 | 10.8 | 1014.9 | 25.2 | SW | 109 | 1.2 |
| 25.05.2025 | 08:13 | 12.6 | 90 | 11.0 | 1014.9 | 16.9 | WSW | 132 | 1.2 |
| 25.05.2025 | 08:18 | 12.7 | 90 | 11.1 | 1014.9 | 8.3 | SW | 144 | 1.2 |
| 25.05.2025 | 08:23 | 12.7 | 90 | 11.1 | 1014.8 | 16.9 | WSW | 132 | 1.2 |
| 25.05.2025 | 08:28 | 12.8 | 89 | 11.0 | 1014.8 | 16.9 | SW | 123 | 1.2 |
| 25.05.2025 | 08:33 | 12.8 | 89 | 11.0 | 1014.8 | 16.9 | SSW | 109 | 1.2 |
| 25.05.2025 | 08:38 | 12.8 | 89 | 11.0 | 1014.8 | 12.6 | S | 98 | 1.2 |
| 25.05.2025 | 08:43 | 12.8 | 89 | 11.0 | 1014.8 | 12.6 | SSW | 104 | 1.2 |
| 25.05.2025 | 08:48 | 12.8 | 89 | 11.0 | 1014.8 | 10.4 | S | 104 | 1.2 |
| 25.05.2025 | 08:53 | 12.8 | 90 | 11.2 | 1014.8 | 16.9 | SSW | 100 | 1.2 |
| 25.05.2025 | 08:58 | 12.8 | 90 | 11.2 | 1014.8 | 16.9 | SSW | 107 | 1.2 |
| 25.05.2025 | 09:03 | 12.9 | 90 | 11.3 | 1014.8 | 18.7 | SSW | 114 | 1.2 |
| 25.05.2025 | 09:08 | 12.9 | 90 | 11.3 | 1014.9 | 8.3 | WSW | 120 | 1.2 |
| 25.05.2025 | 09:13 | 13.0 | 90 | 11.4 | 1014.9 | 14.4 | SW | 127 | 1.2 |
| 25.05.2025 | 09:18 | 13.1 | 90 | 11.5 | 1014.9 | 16.9 | SW | 123 | 1.2 |
| 25.05.2025 | 09:23 | 13.2 | 90 | 11.6 | 1014.8 | 14.4 | SW | 179 | 1.2 |
| 25.05.2025 | 09:28 | 13.3 | 90 | 11.7 | 1014.8 | 18.7 | SSW | 151 | 1.2 |
| 25.05.2025 | 09:34 | 13.4 | 89 | 11.6 | 1014.8 | 10.4 | WSW | 162 | 1.2 |
| 25.05.2025 | 09:39 | 13.5 | 89 | 11.7 | 1014.9 | 12.6 | SSW | 202 | 1.4 |
| 25.05.2025 | 09:44 | 13.7 | 89 | 11.9 | 1014.8 | 10.4 | S | 227 | 1.4 |
| 25.05.2025 | 09:49 | 13.8 | 89 | 12.0 | 1014.7 | 18.7 | SSW | 195 | 1.4 |
| 25.05.2025 | 09:54 | 13.9 | 89 | 12.1 | 1014.8 | 10.4 | SSW | 193 | 1.4 |
| 25.05.2025 | 09:59 | 14.0 | 88 | 12.0 | 1014.8 | 10.4 | SSO | 195 | 1.4 |
| 25.05.2025 | 10:04 | 14.1 | 88 | 12.1 | 1014.8 | 29.5 | SW | 236 | 1.4 |
| 25.05.2025 | 10:09 | 14.3 | 88 | 12.3 | 1014.8 | 16.9 | SSW | 381 | 1.4 |
| 25.05.2025 | 10:14 | 14.7 | 87 | 12.6 | 1014.8 | 12.6 | SSW | 387 | 1.4 |
| 25.05.2025 | 10:19 | 14.9 | 86 | 12.6 | 1014.8 | 16.9 | SSW | 399 | 1.4 |
| 25.05.2025 | 10:24 | 15.1 | 86 | 12.8 | 1014.7 | 27.0 | SSW | 388 | 1.4 |
| 25.05.2025 | 10:29 | 15.2 | 86 | 12.9 | 1014.7 | 12.6 | SSW | 313 | 1.4 |
| 25.05.2025 | 10:34 | 15.4 | 86 | 13.1 | 1014.7 | 21.2 | SSW | 304 | 1.4 |
| 25.05.2025 | 10:39 | 15.6 | 85 | 13.1 | 1014.7 | 6.1 | WSW | 427 | 1.4 |
| 25.05.2025 | 10:44 | 15.7 | 84 | 13.0 | 1014.6 | 16.9 | W | 322 | 1.4 |
| 25.05.2025 | 10:49 | 16.2 | 84 | 13.5 | 1014.5 | 16.9 | W | 592 | 1.4 |
| 25.05.2025 | 10:54 | 16.7 | 82 | 13.6 | 1014.4 | 16.9 | WSW | 663 | 1.4 |
| 25.05.2025 | 10:59 | 16.7 | 80 | 13.2 | 1014.3 | 14.4 | S | 475 | 1.4 |
| 25.05.2025 | 11:04 | 16.6 | 80 | 13.1 | 1014.3 | 29.5 | SSO | 610 | 1.4 |
| 25.05.2025 | 11:09 | 16.5 | 80 | 13.0 | 1014.1 | 21.2 | SW | 455 | 1.4 |
| 25.05.2025 | 11:14 | 16.7 | 80 | 13.2 | 1014.0 | 16.9 | SSW | 434 | 1.4 |
| 25.05.2025 | 11:19 | 16.9 | 80 | 13.4 | 1013.9 | 29.5 | SSW | 353 | 1.4 |
| 25.05.2025 | 11:24 | 16.7 | 79 | 13.0 | 1013.8 | 12.6 | SSW | 315 | 1.4 |
| 25.05.2025 | 11:29 | 16.8 | 80 | 13.3 | 1013.8 | 16.9 | WSW | 475 | 1.4 |
| 25.05.2025 | 11:34 | 17.3 | 79 | 13.6 | 1013.7 | 12.6 | SSW | 603 | 1.4 |
| 25.05.2025 | 11:39 | 18.1 | 79 | 14.4 | 1013.6 | 18.7 | S | 596 | 1.4 |
| 25.05.2025 | 11:44 | 17.8 | 77 | 13.7 | 1013.7 | 27.0 | SW | 496 | 1.4 |
| 25.05.2025 | 11:49 | 18.1 | 77 | 14.0 | 1013.6 | 12.6 | W | 935 | 1.4 |
| 25.05.2025 | 11:54 | 18.3 | 73 | 13.4 | 1013.5 | 14.4 | S | 608 | 1.4 |
| 25.05.2025 | 11:59 | 17.9 | 75 | 13.4 | 1013.5 | 31.3 | SSW | 559 | 1.4 |
| 25.05.2025 | 12:04 | 18.2 | 75 | 13.7 | 1013.5 | 18.7 | WSW | 487 | 1.4 |
| 25.05.2025 | 12:09 | 18.1 | 74 | 13.4 | 1013.6 | 12.6 | S | 490 | 1.4 |
| 25.05.2025 | 12:15 | 18.2 | 75 | 13.7 | 1013.6 | 12.6 | S | 513 | 1.4 |
| 25.05.2025 | 12:20 | 18.3 | 73 | 13.4 | 1013.6 | 14.4 | SW | 459 | 1.4 |
| 25.05.2025 | 12:25 | 18.3 | 73 | 13.4 | 1013.6 | 18.7 | SW | 429 | 1.4 |
| 25.05.2025 | 12:30 | 18.4 | 74 | 13.7 | 1013.5 | 8.3 | SSW | 431 | 1.4 |
| 25.05.2025 | 12:35 | 18.4 | 73 | 13.5 | 1013.5 | 4.3 | W | 260 | 1.4 |
| 25.05.2025 | 12:40 | 18.3 | 74 | 13.6 | 1013.6 | 16.9 | SSW | 276 | 1.4 |
| 25.05.2025 | 12:45 | 18.3 | 73 | 13.4 | 1013.6 | 4.3 | SSW | 346 | 1.4 |
| 25.05.2025 | 12:50 | 18.4 | 73 | 13.5 | 1013.6 | 21.2 | WSW | 378 | 1.4 |
| 25.05.2025 | 12:55 | 18.7 | 74 | 14.0 | 1013.5 | 12.6 | W | 510 | 1.4 |
| 25.05.2025 | 13:00 | 18.7 | 71 | 13.3 | 1013.5 | 8.3 | SSW | 199 | 1.4 |
| 25.05.2025 | 13:05 | 18.4 | 73 | 13.5 | 1013.5 | 16.9 | SSO | 341 | 1.4 |
| 25.05.2025 | 13:10 | 18.7 | 73 | 13.8 | 1013.5 | 6.1 | SSW | 341 | 1.4 |
| 25.05.2025 | 13:15 | 18.4 | 74 | 13.7 | 1013.6 | 8.3 | SW | 216 | 1.4 |
| 25.05.2025 | 13:20 | 18.2 | 75 | 13.7 | 1013.6 | 10.4 | SSW | 134 | 1.4 |
| 25.05.2025 | 13:25 | 18.1 | 75 | 13.6 | 1013.6 | 27.0 | SW | 120 | 1.4 |
| 25.05.2025 | 13:30 | 18.0 | 75 | 13.5 | 1013.7 | 8.3 | WSW | 97 | 1.4 |
| 25.05.2025 | 13:35 | 18.0 | 75 | 13.5 | 1013.7 | 4.3 | W | 151 | 1.4 |
| 25.05.2025 | 13:40 | 18.1 | 74 | 13.4 | 1013.7 | 14.4 | SW | 156 | 1.4 |
| 25.05.2025 | 13:45 | 18.3 | 74 | 13.6 | 1013.6 | 21.2 | SW | 204 | 1.4 |
| 25.05.2025 | 13:50 | 18.4 | 74 | 13.7 | 1013.7 | 10.4 | WSW | 172 | 1.4 |
| 25.05.2025 | 13:55 | 18.5 | 72 | 13.4 | 1013.7 | 14.4 | WSW | 181 | 1.4 |
| 25.05.2025 | 14:00 | 18.5 | 73 | 13.6 | 1013.7 | 10.4 | WSW | 323 | 1.4 |
| 25.05.2025 | 14:05 | 18.7 | 72 | 13.5 | 1013.7 | 21.2 | WNW | 236 | 1.4 |
| 25.05.2025 | 14:10 | 18.6 | 72 | 13.5 | 1013.7 | 16.9 | WSW | 200 | 1.4 |
| 25.05.2025 | 14:15 | 18.5 | 72 | 13.4 | 1013.7 | 14.4 | WSW | 195 | 1.4 |
| 25.05.2025 | 14:20 | 18.5 | 72 | 13.4 | 1013.7 | 12.6 | W | 276 | 1.4 |
| 25.05.2025 | 14:25 | 18.6 | 72 | 13.5 | 1013.7 | 10.4 | WNW | 163 | 1.4 |
| 25.05.2025 | 14:30 | 18.4 | 72 | 13.3 | 1013.8 | 16.9 | SW | 146 | 1.4 |
| 25.05.2025 | 14:35 | 18.3 | 72 | 13.2 | 1013.7 | 14.4 | NW | 185 | 1.4 |
| 25.05.2025 | 14:40 | 18.3 | 71 | 13.0 | 1013.7 | 14.4 | WSW | 223 | 1.4 |
| 25.05.2025 | 14:45 | 18.4 | 72 | 13.3 | 1013.8 | 18.7 | WNW | 199 | 1.4 |
| 25.05.2025 | 14:50 | 18.4 | 72 | 13.3 | 1013.8 | 18.7 | W | 276 | 1.4 |
| 25.05.2025 | 14:55 | 18.8 | 71 | 13.4 | 1013.7 | 12.6 | W | 345 | 1.4 |
| 25.05.2025 | 15:00 | 19.0 | 70 | 13.4 | 1013.7 | 6.1 | WSW | 446 | 1.4 |
| 25.05.2025 | 15:05 | 19.4 | 70 | 13.8 | 1013.7 | 16.9 | SW | 478 | 1.4 |
| 25.05.2025 | 15:11 | 20.3 | 70 | 14.6 | 1013.6 | 16.9 | S | 923 | 1.4 |
| 25.05.2025 | 15:16 | 20.4 | 68 | 14.3 | 1013.5 | 18.7 | SW | 374 | 1.4 |
| 25.05.2025 | 15:21 | 19.8 | 68 | 13.7 | 1013.4 | 8.3 | W | 367 | 1.4 |
| 25.05.2025 | 15:26 | 19.5 | 69 | 13.7 | 1013.4 | 37.4 | SW | 327 | 1.4 |
| 25.05.2025 | 15:31 | 19.4 | 70 | 13.8 | 1013.5 | 6.1 | SW | 253 | 1.4 |
| 25.05.2025 | 15:36 | 19.3 | 69 | 13.5 | 1013.5 | 18.7 | WSW | 276 | 1.4 |
| 25.05.2025 | 15:41 | 19.4 | 69 | 13.6 | 1013.5 | 14.4 | WSW | 311 | 1.4 |
| 25.05.2025 | 15:46 | 19.4 | 69 | 13.6 | 1013.4 | 14.4 | WNW | 272 | 1.4 |
| 25.05.2025 | 15:51 | 19.4 | 69 | 13.6 | 1013.4 | 18.7 | WSW | 306 | 1.4 |
| 25.05.2025 | 15:56 | 19.5 | 70 | 13.9 | 1013.3 | 6.1 | W | 209 | 1.4 |
| 25.05.2025 | 16:01 | 19.4 | 69 | 13.6 | 1013.3 | 12.6 | W | 295 | 1.4 |
| 25.05.2025 | 16:06 | 19.7 | 71 | 14.3 | 1013.3 | 16.9 | NW | 306 | 1.4 |
| 25.05.2025 | 16:11 | 19.8 | 70 | 14.2 | 1013.4 | 6.1 | WNW | 468 | 1.4 |
| 25.05.2025 | 16:16 | 20.1 | 68 | 14.0 | 1013.4 | 6.1 | SW | 411 | 1.4 |
| 25.05.2025 | 16:21 | 20.3 | 68 | 14.2 | 1013.3 | 16.9 | WNW | 353 | 1.4 |
| 25.05.2025 | 16:26 | 20.2 | 65 | 13.4 | 1013.4 | 8.3 | WSW | 341 | 1.4 |
| 25.05.2025 | 16:31 | 20.1 | 66 | 13.5 | 1013.3 | 23.0 | W | 397 | 1.4 |
| 25.05.2025 | 16:36 | 20.1 | 66 | 13.5 | 1013.4 | 25.2 | W | 329 | 1.4 |
| 25.05.2025 | 16:41 | 20.2 | 66 | 13.6 | 1013.3 | 8.3 | S | 353 | 1.4 |
| 25.05.2025 | 16:46 | 20.3 | 66 | 13.7 | 1013.3 | 8.3 | WNW | 441 | 1.4 |
| 25.05.2025 | 16:51 | 20.7 | 64 | 13.6 | 1013.2 | 6.1 | WNW | 301 | 1.4 |
| 25.05.2025 | 16:56 | 21.3 | 64 | 14.2 | 1013.2 | 35.6 | WNW | 751 | 1.4 |
| 25.05.2025 | 17:01 | 21.2 | 62 | 13.6 | 1013.1 | 4.3 | W | 564 | 1.4 |
| 25.05.2025 | 17:06 | 20.7 | 63 | 13.4 | 1013.1 | 16.9 | SW | 264 | 1.4 |
| 25.05.2025 | 17:11 | 20.6 | 63 | 13.3 | 1013.1 | 8.3 | SSW | 272 | 1.4 |
| 25.05.2025 | 17:16 | 20.3 | 63 | 13.0 | 1013.0 | 16.9 | NNW | 179 | 1.4 |
| 25.05.2025 | 17:21 | 20.1 | 64 | 13.1 | 1013.1 | 14.4 | WNW | 158 | 1.4 |
| 25.05.2025 | 17:26 | 20.1 | 64 | 13.1 | 1013.1 | 10.4 | SSW | 250 | 1.4 |
| 25.05.2025 | 17:31 | 20.3 | 64 | 13.3 | 1013.1 | 6.1 | W | 557 | 1.4 |
| 25.05.2025 | 17:36 | 20.8 | 64 | 13.7 | 1013.0 | 6.1 | W | 190 | 1.4 |
| 25.05.2025 | 17:41 | 20.6 | 64 | 13.6 | 1013.0 | 8.3 | SSW | 192 | 1.4 |
| 25.05.2025 | 17:47 | 20.6 | 64 | 13.6 | 1013.0 | 21.2 | S | 258 | 1.4 |
| 25.05.2025 | 17:52 | 20.6 | 63 | 13.3 | 1012.9 | 8.3 | SW | 274 | 1.4 |
| 25.05.2025 | 17:57 | 20.5 | 63 | 13.2 | 1012.9 | 25.2 | SSW | 244 | 1.4 |
| 25.05.2025 | 18:02 | 20.7 | 62 | 13.2 | 1012.9 | 14.4 | WSW | 269 | 1.4 |
| 25.05.2025 | 18:07 | 20.7 | 63 | 13.4 | 1012.9 | 29.5 | SW | 304 | 1.4 |
| 25.05.2025 | 18:12 | 20.7 | 63 | 13.4 | 1012.9 | 31.3 | WSW | 232 | 1.4 |
| 25.05.2025 | 18:17 | 20.7 | 63 | 13.4 | 1012.9 | 23.0 | WSW | 181 | 1.4 |
| 25.05.2025 | 18:22 | 20.4 | 64 | 13.4 | 1012.9 | 12.6 | SSW | 134 | 1.4 |
| 25.05.2025 | 18:27 | 20.3 | 64 | 13.3 | 1012.9 | 8.3 | S | 186 | 1.4 |
| 25.05.2025 | 18:32 | 20.3 | 64 | 13.3 | 1013.0 | 31.3 | SW | 125 | 1.4 |
| 25.05.2025 | 18:37 | 20.3 | 64 | 13.3 | 1012.9 | 8.3 | W | 102 | 1.4 |
| 25.05.2025 | 18:42 | 20.1 | 65 | 13.3 | 1013.0 | 37.4 | WSW | 107 | 1.4 |
| 25.05.2025 | 18:47 | 20.0 | 65 | 13.2 | 1013.0 | 8.3 | SSW | 105 | 1.4 |
| 25.05.2025 | 18:52 | 19.9 | 66 | 13.4 | 1013.0 | 6.1 | W | 67 | 1.4 |
| 25.05.2025 | 18:57 | 19.8 | 66 | 13.3 | 1013.1 | 12.6 | WSW | 76 | 1.4 |
| 25.05.2025 | 19:02 | 19.7 | 66 | 13.2 | 1013.0 | 10.4 | WSW | 83 | 1.4 |
| 25.05.2025 | 19:07 | 19.6 | 67 | 13.3 | 1013.1 | 4.3 | WSW | 53 | 1.4 |
| 25.05.2025 | 19:12 | 19.5 | 68 | 13.4 | 1013.1 | 8.3 | WSW | 46 | 1.4 |
| 25.05.2025 | 19:17 | 19.4 | 68 | 13.3 | 1013.2 | 18.7 | SSW | 60 | 1.4 |
| 25.05.2025 | 19:22 | 19.4 | 68 | 13.3 | 1013.0 | 18.7 | SW | 100 | 1.4 |
| 25.05.2025 | 19:27 | 19.4 | 68 | 13.3 | 1013.1 | 10.4 | SSW | 123 | 1.4 |
| 25.05.2025 | 19:32 | 19.4 | 68 | 13.3 | 1013.1 | 10.4 | WSW | 127 | 1.4 |
| 25.05.2025 | 19:37 | 19.4 | 68 | 13.3 | 1013.2 | 18.7 | WNW | 107 | 1.4 |
| 25.05.2025 | 19:42 | 19.3 | 69 | 13.5 | 1013.2 | 18.7 | WSW | 88 | 1.4 |
| 25.05.2025 | 19:47 | 19.2 | 69 | 13.4 | 1013.3 | 10.4 | WNW | 74 | 1.4 |
| 25.05.2025 | 19:52 | 19.1 | 70 | 13.5 | 1013.4 | 31.3 | WSW | 63 | 1.4 |
| 25.05.2025 | 19:57 | 19.1 | 70 | 13.5 | 1013.3 | 16.9 | W | 42 | 1.4 |
| 25.05.2025 | 20:02 | 19.0 | 70 | 13.4 | 1013.4 | 14.4 | WSW | 23 | 1.4 |
| 25.05.2025 | 20:07 | 19.0 | 69 | 13.2 | 1013.4 | 6.1 | W | 35 | 1.4 |
| 25.05.2025 | 20:12 | 18.9 | 69 | 13.1 | 1013.4 | 6.1 | WNW | 33 | 1.4 |
| 25.05.2025 | 20:17 | 18.9 | 70 | 13.3 | 1013.4 | 14.4 | SW | 18 | 1.4 |
| 25.05.2025 | 20:22 | 18.8 | 70 | 13.2 | 1013.5 | 10.4 | NW | 18 | 1.4 |
| 25.05.2025 | 20:28 | 18.8 | 70 | 13.2 | 1013.5 | 23.0 | W | 18 | 1.4 |
| 25.05.2025 | 20:33 | 18.7 | 71 | 13.3 | 1013.5 | 18.7 | W | 14 | 1.4 |
| 25.05.2025 | 20:38 | 18.6 | 71 | 13.2 | 1013.5 | 6.1 | WNW | 14 | 1.4 |
| 25.05.2025 | 20:43 | 18.4 | 72 | 13.3 | 1013.6 | 27.0 | W | 12 | 1.4 |
| 25.05.2025 | 20:48 | 18.1 | 75 | 13.6 | 1013.7 | 10.4 | WNW | 7 | 1.4 |
| 25.05.2025 | 20:53 | 17.6 | 77 | 13.5 | 1013.7 | 8.3 | W | 7 | 1.4 |
| 25.05.2025 | 20:58 | 17.4 | 77 | 13.3 | 1013.9 | 4.3 | SSO | 0 | 1.4 |
| 25.05.2025 | 21:03 | 17.4 | 77 | 13.3 | 1013.8 | 8.3 | W | 0 | 1.4 |
| 25.05.2025 | 21:08 | 17.4 | 77 | 13.3 | 1013.9 | 12.6 | W | 0 | 1.4 |
| 25.05.2025 | 21:13 | 17.4 | 77 | 13.3 | 1013.9 | 4.3 | WNW | 0 | 1.4 |
| 25.05.2025 | 21:18 | 17.4 | 77 | 13.3 | 1013.9 | 12.6 | SW | 0 | 1.4 |
| 25.05.2025 | 21:23 | 17.3 | 78 | 13.4 | 1014.0 | 6.1 | WNW | 0 | 1.4 |
| 25.05.2025 | 21:28 | 17.3 | 78 | 13.4 | 1014.0 | 6.1 | W | 0 | 1.4 |
| 25.05.2025 | 21:33 | 17.2 | 78 | 13.3 | 1014.0 | 16.9 | WSW | 0 | 1.4 |
| 25.05.2025 | 21:38 | 17.2 | 78 | 13.3 | 1014.0 | 10.4 | S | 0 | 1.4 |
| 25.05.2025 | 21:43 | 17.2 | 78 | 13.3 | 1014.0 | 4.3 | SSW | 0 | 1.4 |
| 25.05.2025 | 21:48 | 17.2 | 79 | 13.5 | 1014.1 | 10.4 | WNW | 0 | 1.4 |
| 25.05.2025 | 21:53 | 17.1 | 79 | 13.4 | 1014.1 | 6.1 | W | 0 | 1.4 |
| 25.05.2025 | 21:58 | 17.1 | 79 | 13.4 | 1014.1 | 14.4 | WNW | 0 | 1.4 |
| 25.05.2025 | 22:03 | 17.1 | 79 | 13.4 | 1014.2 | 8.3 | NW | 0 | 1.4 |
| 25.05.2025 | 22:08 | 17.0 | 79 | 13.3 | 1014.3 | 14.4 | WNW | 0 | 1.4 |
| 25.05.2025 | 22:13 | 16.9 | 80 | 13.4 | 1014.4 | 4.3 | WSW | 0 | 1.4 |
| 25.05.2025 | 22:18 | 16.8 | 80 | 13.3 | 1014.4 | 21.2 | WNW | 0 | 1.4 |
| 25.05.2025 | 22:23 | 16.7 | 80 | 13.2 | 1014.3 | 12.6 | W | 0 | 1.4 |
| 25.05.2025 | 22:28 | 16.6 | 80 | 13.1 | 1014.4 | 21.2 | W | 0 | 1.4 |
| 25.05.2025 | 22:33 | 16.4 | 80 | 12.9 | 1014.4 | 16.9 | W | 0 | 1.4 |
| 25.05.2025 | 22:38 | 16.4 | 81 | 13.1 | 1014.5 | 4.3 | W | 0 | 1.4 |
| 25.05.2025 | 22:43 | 16.4 | 81 | 13.1 | 1014.5 | 6.1 | W | 0 | 1.4 |
| 25.05.2025 | 22:48 | 16.4 | 80 | 12.9 | 1014.4 | 6.1 | W | 0 | 1.4 |
| 25.05.2025 | 22:53 | 16.3 | 81 | 13.0 | 1014.4 | 4.3 | WSW | 0 | 1.4 |
| 25.05.2025 | 22:58 | 16.3 | 81 | 13.0 | 1014.5 | 6.1 | W | 0 | 1.4 |
| 25.05.2025 | 23:03 | 16.2 | 82 | 13.1 | 1014.6 | 4.3 | WSW | 0 | 1.4 |
| 25.05.2025 | 23:08 | 15.9 | 83 | 13.0 | 1014.7 | 1.8 | W | 0 | 1.4 |
| 25.05.2025 | 23:13 | 15.8 | 85 | 13.3 | 1014.7 | 4.3 | W | 0 | 1.4 |
| 25.05.2025 | 23:18 | 15.6 | 86 | 13.3 | 1014.8 | 10.4 | WSW | 0 | 1.4 |
| 25.05.2025 | 23:24 | 15.4 | 87 | 13.2 | 1014.8 | 1.8 | WSW | 0 | 1.6 |
| 25.05.2025 | 23:29 | 15.3 | 87 | 13.1 | 1014.8 | 10.4 | SSW | 0 | 1.6 |
| 25.05.2025 | 23:34 | 15.1 | 88 | 13.1 | 1015.0 | 8.3 | SW | 0 | 1.6 |
| 25.05.2025 | 23:39 | 14.9 | 89 | 13.1 | 1015.0 | 8.3 | SW | 0 | 1.6 |
| 25.05.2025 | 23:44 | 14.8 | 89 | 13.0 | 1015.1 | 14.4 | SW | 0 | 1.6 |
| 25.05.2025 | 23:49 | 14.8 | 89 | 13.0 | 1015.0 | 4.3 | SSW | 0 | 1.6 |
| 25.05.2025 | 23:54 | 14.8 | 89 | 13.0 | 1015.1 | 10.4 | SSW | 0 | 1.6 |
| 25.05.2025 | 23:59 | 14.7 | 89 | 12.9 | 1015.1 | 6.1 | SSW | 0 | 1.6 |